Weather History for Amritsar, India

Change the Weather History Date:

Thursday, April 4, 2013

  Actual Average Record
Temperature  
Mean Temperature 72 °F -  
Max Temperature 88 °F 86 °F 95 °F (2004)
Min Temperature 57 °F 61 °F 53 °F (1999)
Cooling Degree Days 8    
Growing Degree Days 22 (Base 50)    
Moisture  
Dew Point 57 °F    
Average Humidity 62    
Maximum Humidity 100    
Minimum Humidity 24    
Precipitation  
Precipitation 0.00 in - - ()
Sea Level Pressure  
Sea Level Pressure 29.84 in    
Wind  
Wind Speed 4 mph ()    
Max Wind Speed 16 mph    
Max Gust Speed -    
Visibility 3.4 miles    
Events      
Averages and records for this station are not official NWS values.
T = Trace of Precipitation, MM = Missing Value Source: Averaged Metar Reports

Daily Weather History Graph

Daily Weather History Graph

Search for Another Location

Airport:

Trip Planner

Search our weather history database for the weather conditions in past years. The results will help you decide how hot, cold, wet, or windy it might be!

Date:

Astronomy

Apr. 04, 2013 Rise Set
Actual Time 6:15 AM IST 6:52 PM IST
Civil Twilight 5:51 AM IST 7:16 PM IST
Nautical Twilight 5:22 AM IST 7:45 PM IST
Astronomical Twilight 4:52 AM IST 8:15 PM IST
Moon 2:00 AM IST (4/4) 1:01 PM IST (4/4)
Length of Visible Light 13h 25m
Length of Day
12h 36m
Last Quarter, 38% of the Moon is Illuminated
Apr 4
Last Quarter
Apr 10
New
Apr 18
First Quarter
Apr 26
Full
May 2
Last Quarter

Hourly Weather History & Observations

Time (IST) Temp. Heat Index Dew Point Humidity Pressure Visibility Wind Dir Wind Speed Gust Speed Precip Events Conditions
12:00 AM 68.0 °F - 57.2 °F 68% 29.86 in 3.7 mi Calm Calm - N/A   Scattered Clouds
12:30 AM 68.0 °F - 57.2 °F 68% 29.86 in 3.7 mi Variable 5.8 mph - N/A   Scattered Clouds
1:00 AM 66.2 °F - 57.2 °F 73% 29.86 in 3.7 mi Variable 4.6 mph - N/A   Scattered Clouds
1:30 AM 64.4 °F - 57.2 °F 77% 29.86 in 3.7 mi Variable 2.3 mph - N/A   Scattered Clouds
2:00 AM 62.6 °F - 57.2 °F 82% 29.86 in 3.1 mi Calm Calm - N/A   Scattered Clouds
2:30 AM 60.8 °F - 59.0 °F 94% 29.86 in 3.1 mi Calm Calm - N/A   Scattered Clouds
3:00 AM 60.8 °F - 60.8 °F 100% 29.83 in 3.1 mi Calm Calm - N/A   Mostly Cloudy
3:30 AM 62.6 °F - 60.8 °F 94% 29.83 in 3.1 mi Calm Calm - N/A   Mostly Cloudy
5:00 AM 59.0 °F - 59.0 °F 100% 29.83 in 3.1 mi Calm Calm - N/A   Mostly Cloudy
5:30 AM 60 °F - 60 °F 99% 29.83 in 2 mi NW 2.3 mph - -   Mist
5:30 AM 59.0 °F - 59.0 °F 100% 29.83 in 3.1 mi Variable 2.3 mph - N/A   Mostly Cloudy
6:00 AM 60.8 °F - 59.0 °F 94% 29.83 in 3.1 mi NNW 4.6 mph - N/A   Mostly Cloudy
6:30 AM 59.0 °F - 59.0 °F 100% 29.83 in 3.1 mi Calm Calm - N/A   Mostly Cloudy
7:00 AM 59.0 °F - 59.0 °F 100% 29.83 in 3.1 mi Calm Calm - N/A   Mist
7:30 AM 60.8 °F - 60.8 °F 100% 29.86 in 3.1 mi Calm Calm - N/A   Mist
8:00 AM 64.4 °F - 62.6 °F 94% 29.86 in 3.1 mi Calm Calm - N/A   Mist
8:30 AM 68 °F - 62 °F 76% 29.88 in 2 mi NW 4.6 mph - -   Mist
8:30 AM 68.0 °F - 62.6 °F 83% 29.86 in 3.1 mi NW 4.6 mph - N/A   Mist
9:00 AM 71.6 °F - 60.8 °F 69% 29.89 in 3.1 mi NNW 8.1 mph - N/A   Mist
9:30 AM 71.6 °F - 60.8 °F 69% 29.89 in 3.1 mi WNW 6.9 mph - N/A   Haze
10:00 AM 75.2 °F - 60.8 °F 61% 29.89 in 3.7 mi NW 4.6 mph - N/A   Unknown
10:30 AM 77.0 °F - 60.8 °F 57% 29.89 in 3.7 mi WNW 8.1 mph - N/A   Unknown
11:00 AM 80.6 °F 81.1 °F 59.0 °F 48% 29.89 in 3.7 mi WNW 10.4 mph - N/A   Partly Cloudy
11:30 AM 80.6 °F 81.1 °F 59.0 °F 48% 29.89 in 3.7 mi NW 12.7 mph - N/A   Partly Cloudy
12:00 PM 80.6 °F 81.1 °F 59.0 °F 48% 29.89 in 3.7 mi NW 13.8 mph - N/A   Partly Cloudy
12:30 PM 82.4 °F 81.7 °F 55.4 °F 39% 29.89 in 3.7 mi NW 15.0 mph - N/A   Partly Cloudy
1:00 PM 84.2 °F 83.5 °F 57.2 °F 40% 29.86 in 3.7 mi NW 11.5 mph - N/A   Partly Cloudy
1:30 PM 84.2 °F 83.0 °F 55.4 °F 37% 29.86 in 3.7 mi NW 12.7 mph - N/A   Partly Cloudy
2:00 PM 84.2 °F 83.0 °F 55.4 °F 37% 29.83 in 3.7 mi NW 11.5 mph - N/A   Partly Cloudy
2:30 PM 87 °F - 55 °F 24% 29.79 in 2 mi NW 15.0 mph - -   Clear
2:30 PM 86.0 °F 84.5 °F 55.4 °F 35% 29.83 in 3.7 mi NW 15.0 mph - N/A   Partly Cloudy
3:00 PM 86.0 °F 84.5 °F 55.4 °F 35% 29.83 in 3.7 mi NW 16.1 mph - N/A   Partly Cloudy
3:30 PM 86.0 °F 84.5 °F 55.4 °F 35% 29.80 in 3.7 mi WNW 12.7 mph - N/A   Partly Cloudy
4:00 PM 86.0 °F - 50.0 °F 29% 29.80 in 3.7 mi NW 12.7 mph - N/A   Partly Cloudy
4:30 PM 84.2 °F - 50.0 °F 30% 29.80 in 3.7 mi WNW 10.4 mph - N/A   Partly Cloudy
5:00 PM 82.4 °F - 51.8 °F 35% 29.80 in 3.7 mi NW 15.0 mph - N/A   Partly Cloudy
5:30 PM 81 °F - 53 °F 27% 29.76 in 2 mi NW 11.5 mph - -   Scattered Clouds
5:30 PM 80.6 °F - 51.8 °F 37% 29.80 in 3.7 mi NW 15.0 mph - N/A   Partly Cloudy
6:00 PM 80.6 °F - 51.8 °F 37% 29.80 in 3.7 mi NW 10.4 mph - N/A   Partly Cloudy
6:30 PM 78.8 °F - 53.6 °F 42% 29.80 in 3.7 mi NW 6.9 mph - N/A   Partly Cloudy
7:00 PM 73.4 °F - 55.4 °F 53% 29.80 in 3.7 mi WNW 4.6 mph - N/A   Partly Cloudy
7:30 PM 71.6 °F - 57.2 °F 60% 29.80 in 3.7 mi Calm Calm - N/A   Partly Cloudy
8:00 PM 71.6 °F - 57.2 °F 60% 29.80 in 3.7 mi Calm Calm - N/A   Partly Cloudy
8:30 PM 71 °F - 55 °F 47% 29.80 in 2 mi Calm Calm - -   Scattered Clouds
8:30 PM 71.6 °F - 55.4 °F 57% 29.83 in 3.7 mi Calm Calm - N/A   Partly Cloudy
9:00 PM 69.8 °F - 53.6 °F 56% 29.83 in 3.7 mi Calm Calm - N/A   Partly Cloudy
9:30 PM 68.0 °F - 55.4 °F 64% 29.83 in 3.7 mi Calm Calm - N/A   Partly Cloudy
10:00 PM 66.2 °F - 53.6 °F 64% 29.83 in 3.7 mi Calm Calm - N/A   Unknown
10:30 PM 68.0 °F - 53.6 °F 60% 29.83 in 3.7 mi Calm Calm - N/A   Unknown
11:00 PM 66.2 °F - 53.6 °F 64% 29.83 in 3.7 mi Calm Calm - N/A   Unknown
11:30 PM 64.4 °F - 53.6 °F 68% 29.80 in 3.7 mi Calm Calm - N/A   Unknown